Погода в Адыямане

Турция     37°45′50″N   38°16′35″E
темп.,
°C
ветер,
м/с
пор.,
м/с
влажн.,
%
обл.,
%
осадки,
мм/ч
давл.,
гПа
погр.,
м
3 августа, вт
вт300:00+30ссз44200 0.0 100350
03:00+28с44270 0.0 100346
06:00+27с22310 0.0 100524
09:00+34ссз12160 0.0 1005678
12:00+38ю34132 0.0 10043917
15:00+40ююз551127 0.0 10024403
18:00+39ссз441145 0.0 10023217
21:00+33с44140 0.0 100461
4 августа, ср
ср400:00+31ссз32170 0.0 100520
03:00+30ссз33240 0.0 100532
06:00+29ссз33290 0.0 100640
09:00+35вюв11200 0.0 1007794
12:00+39ю44140 0.0 10063475
15:00+40ююз54110 0.0 10043958
18:00+40ююз54116 0.0 10032647
21:00+34сз22145 0.0 100412
5 августа, чт
чт500:00+32с44181 0.0 100552
03:00+30с32205 0.0 100523
06:00+29ссз33244 0.0 100631
09:00+35ю011847 0.0 1005651
12:00+39ююв431412 0.0 10042879
15:00+36с661945 0.0 10032033
18:00+37с781674 0.0 1002834
21:00+32ссз232416 0.0 100432
6 августа, пт
пт600:00+30ссз22233 0.0 100412
03:00+29ссз33215 0.0 100419
06:00+27зюз222753 0.0 100521
09:00+34вюв111827 0.0 1004627
12:00+38з33140 0.1 10032401
15:00+39юз34121 0.1 10003931
18:00+33зсз9122283 0.0 1002700
21:00+30сз23262 0.1 100348
7 августа, сб
сб700:00+29с222722 0.0 100418
03:00+27ссз22300 0.0 100311
06:00+26всв11330 0.0 100411
09:00+32вюв11220 0.0 1005543
12:00+37ю44150 0.0 10042890
15:00+38ююз43102 0.0 10024321
18:00+37юз33101 0.0 10023776
21:00+28ссз58315 0.0 1005187